Home > Weather > Haarlem > Past weeks

Flag for Netherlands Past Weather in Haarlem, Netherlands — Yesterday and Last 2 Weeks

Now
64 °F

Partly sunny.


Feels Like: 64 °F
Forecast: 63 / 68 °F
Wind: 5 mph from Southeast

Location: Amsterdam Schiphol Airport

Current Time: Jul 28, 2016 at 8:54:35 AM

Latest Report: Jul 28, 2016 at 8:25 AM


Visibility: 5 mi

Pressure: 29.95 "Hg

Humidity: 94%

Dew Point: 63 °F

Location of HaarlemLocation

Past Weather in Haarlem — Graph

°F

Haarlem Temperature Yesterday

Maximum temperature yesterday: 68 °F (at 9:55 AM)
Minimum temperature yesterday: 63 °F (at 4:55 AM)
Average temperature yesterday: 65 °F

High & Low Weather Summary for the Past Weeks

 TemperatureHumidityPressure
High91 °F (Jul 20, 3:25 PM)100% (Jul 17, 11:25 PM)30.27 "Hg (Jul 17, 11:25 PM)
Low50 °F (Jul 14, 3:55 AM)38% (Jul 20, 2:55 PM)29.80 "Hg (Jul 20, 3:55 PM)
Average67 °F76%30.08 "Hg
* Reported Jul 13 7:25 AM — Jul 28 7:55 AM, Haarlem, Weather by CustomWeather, © 2016

Note: Actual official high and low records may vary slightly from our data, if they occured in-between our weather recording intervals... More about our weather records

Advertising

Haarlem Weather History for the Previous 24 Hours

Scroll right to see more
 ConditionsComfort  
Time TempWeatherWind HumidityBarometerVisibility
7:55 AM
Thu, Jul 28
64 °FDrizzle. Broken clouds.6 mph94%29.95 "Hg6 mi
7:25 AM63 °FBroken clouds.7 mph94%29.95 "HgN/A
6:55 AM63 °FPassing clouds.5 mph100%29.95 "Hg6 mi
6:25 AM63 °FPartly cloudy.5 mph94%29.95 "Hg5 mi
5:55 AM63 °FPassing clouds.3 mph94%29.95 "Hg4 mi
5:25 AM61 °FFog.5 mph100%29.98 "Hg3 mi
4:55 AM59 °FFog.5 mph100%29.95 "Hg3 mi
4:25 AM61 °FFog.2 mph94%29.98 "Hg3 mi
3:55 AM61 °FCool.3 mph94%29.98 "Hg1 mi
3:25 AM61 °FCool.3 mph100%29.98 "Hg1 mi
2:55 AM59 °FFog.2 mph100%29.98 "Hg4 mi
2:25 AM61 °FFog.3 mph100%29.98 "Hg5 mi
1:55 AM61 °FFog.3 mph100%29.98 "Hg5 mi
1:25 AM63 °FFog.1 mph100%29.98 "HgN/A
12:55 AM63 °FPassing clouds.3 mph94%30.01 "HgN/A
12:25 AM63 °FPassing clouds.3 mph100%30.01 "HgN/A
11:55 PM
Wed, Jul 27
63 °FLight rain. Passing clouds.5 mph94%30.01 "HgN/A
11:25 PM63 °FLight rain. Passing clouds.2 mph94%30.01 "HgN/A
10:55 PM63 °FPassing clouds.5 mph94%30.01 "HgN/A
10:25 PM63 °FPassing clouds.5 mph94%29.98 "HgN/A
9:55 PM63 °FPassing clouds.7 mph94%29.98 "HgN/A
9:25 PM63 °FScattered clouds.7 mph100%29.98 "HgN/A
8:55 PM63 °FLight rain. Passing clouds.8 mph100%29.98 "HgN/A
8:25 PM64 °FDrizzle. Broken clouds.16 mph94%29.98 "Hg2 mi
7:55 PM64 °FDrizzle. Broken clouds.13 mph94%29.98 "Hg1 mi
7:25 PM64 °FDrizzle. Broken clouds.15 mph94%29.98 "Hg2 mi
6:55 PM64 °FDrizzle. Broken clouds.14 mph94%29.98 "Hg2 mi
6:25 PM64 °FDrizzle. Broken clouds.14 mph94%29.98 "Hg2 mi
5:55 PM64 °FDrizzle. Broken clouds.15 mph94%29.98 "Hg2 mi
5:25 PM64 °FDrizzle. Broken clouds.16 mph94%29.98 "Hg2 mi
4:55 PM64 °FLight rain. Broken clouds.18 mph94%29.95 "Hg4 mi
4:25 PM66 °FSprinkles. Broken clouds.17 mph88%29.98 "HgN/A
3:55 PM66 °FPartly sunny.17 mph88%29.98 "HgN/A
3:25 PM68 °FSprinkles. Partly sunny.15 mph83%29.98 "HgN/A
2:55 PM68 °FSprinkles. Scattered clouds.20 mph78%29.98 "HgN/A
2:25 PM68 °FBroken clouds.16 mph83%29.98 "HgN/A
1:55 PM68 °FBroken clouds.15 mph83%29.98 "HgN/A
1:25 PM68 °FScattered showers. Broken clouds.16 mph83%29.98 "HgN/A
12:55 PM66 °FDrizzle. Broken clouds.12 mph88%29.98 "HgN/A
12:25 PM68 °FDrizzle. Partly sunny.13 mph73%29.98 "HgN/A
11:55 AM68 °FScattered clouds.16 mph78%30.01 "HgN/A
11:25 AM68 °FPassing clouds.15 mph78%30.01 "HgN/A
10:55 AM66 °FPassing clouds.14 mph78%30.01 "HgN/A
10:25 AM66 °FPassing clouds.14 mph78%30.01 "HgN/A
9:55 AM68 °FPassing clouds.13 mph73%30.01 "HgN/A
9:25 AM64 °FPassing clouds.12 mph78%30.01 "HgN/A
8:55 AM64 °FPassing clouds.12 mph78%30.01 "HgN/A
8:25 AM64 °FPassing clouds.13 mph73%30.01 "HgN/A
Weather by CustomWeather, © 2016

See weather overviewHow to use our weather pages